Weather History for Fort Smith, AR

Change the Weather History Date:

Thursday, January 19, 2012

  Actual Average Record
Temperature  
Mean Temperature 44 °F 39 °F  
Max Temperature 59 °F 50 °F 81 °F (1952)
Min Temperature 29 °F 29 °F -2 °F (1940)
Degree Days  
Heating Degree Days 21 26  
Month to date heating degree days 378 494  
Since 1 July heating degree days 1433 1793  
Moisture  
Dew Point 29 °F    
Average Humidity 58    
Maximum Humidity 79    
Minimum Humidity 37    
Precipitation  
Precipitation 0.00 in 0.09 in 1.86 in (1954)
Month to date precipitation 1.07 1.69  
Year to date precipitation 1.07 1.69  
Sea Level Pressure  
Sea Level Pressure 29.92 in    
Wind  
Wind Speed 5 mph (NE)    
Max Wind Speed 13 mph    
Max Gust Speed 16 mph    
Visibility 10 miles    
Events      
T = Trace of Precipitation, MM = Missing Value Source: NWS Daily Summary

Daily Weather History Graph

Daily Weather History Graph

Search for Another Location

Airport:

Trip Planner

Search our weather history database for the weather conditions in past years. The results will help you decide how hot, cold, wet, or windy it might be!

Date:

Astronomy

Jan. 19, 2012 Rise Set
Actual Time 7:24 AM CST 5:31 PM CST
Civil Twilight 6:57 AM CST 5:59 PM CST
Nautical Twilight 6:26 AM CST 6:30 PM CST
Astronomical Twilight 5:55 AM CST 7:00 PM CST
Moon 3:59 AM CST (1/19) 2:07 PM CST (1/19)
Length of Visible Light 11h 02m
Length of Day
10h 07m
Waning Crescent, 15% of the Moon is Illuminated
Jan 19
Waning Crescent
Jan 23
New
Jan 30
First Quarter
Feb 7
Full
Feb 14
Last Quarter

Hourly Weather History & Observations

Time (CST) Temp. Windchill Dew Point Humidity Pressure Visibility Wind Dir Wind Speed Gust Speed Precip Events Conditions
12:53 AM 30.9 °F 26.2 °F 23.0 °F 72% 30.02 in 10.0 mi NE 4.6 mph - N/A   Clear
1:53 AM 30.9 °F 25.2 °F 23.0 °F 72% 30.00 in 10.0 mi NE 5.8 mph - N/A   Clear
2:53 AM 30.9 °F 24.3 °F 23.0 °F 72% 29.99 in 10.0 mi NE 6.9 mph - N/A   Clear
3:53 AM 30.0 °F 25.2 °F 23.0 °F 75% 29.97 in 10.0 mi NE 4.6 mph - N/A   Clear
4:53 AM 30.9 °F 25.2 °F 23.0 °F 72% 29.95 in 10.0 mi ENE 5.8 mph - N/A   Clear
5:53 AM 30.0 °F 23.2 °F 24.1 °F 79% 29.92 in 10.0 mi ENE 6.9 mph - N/A   Clear
6:53 AM 30.9 °F 22.8 °F 24.1 °F 76% 29.90 in 10.0 mi ENE 9.2 mph - N/A   Clear
7:53 AM 30.9 °F 22.8 °F 24.1 °F 76% 29.90 in 10.0 mi ENE 9.2 mph - N/A   Clear
8:53 AM 35.1 °F 27.9 °F 25.0 °F 67% 29.91 in 10.0 mi ENE 9.2 mph - N/A   Clear
9:53 AM 39.2 °F 34.2 °F 28.4 °F 65% 29.91 in 10.0 mi NE 6.9 mph - N/A   Clear
10:53 AM 46.0 °F 41.0 °F 28.0 °F 50% 29.92 in 10.0 mi East 10.4 mph - N/A   Clear
11:53 AM 51.8 °F - 28.4 °F 41% 29.88 in 10.0 mi ESE 4.6 mph - N/A   Clear
12:53 PM 53.1 °F - 30.0 °F 41% 29.86 in 10.0 mi Calm Calm - N/A   Clear
1:53 PM 57.9 °F - 34.0 °F 41% 29.86 in 10.0 mi West 4.6 mph - N/A   Clear
2:53 PM 57.0 °F - 34.0 °F 42% 29.86 in 10.0 mi Variable 6.9 mph - N/A   Clear
3:53 PM 59.0 °F - 33.1 °F 38% 29.87 in 10.0 mi Calm Calm - N/A   Clear
4:53 PM 57.0 °F - 34.0 °F 42% 29.88 in 10.0 mi WSW 4.6 mph - N/A   Clear
5:53 PM 52.0 °F - 34.0 °F 50% 29.91 in 10.0 mi SW 5.8 mph - N/A   Clear
6:53 PM 46.0 °F - 35.1 °F 66% 29.92 in 10.0 mi Calm Calm - N/A   Clear
7:53 PM 42.8 °F - 33.8 °F 70% 29.92 in 10.0 mi Calm Calm - N/A   Clear
8:53 PM 41.0 °F - 34.0 °F 76% 29.94 in 10.0 mi Calm Calm - N/A   Clear
9:53 PM 39.9 °F - 33.1 °F 77% 29.94 in 7.0 mi Calm Calm - N/A   Clear
10:53 PM 39.0 °F 36.8 °F 33.1 °F 79% 29.93 in 10.0 mi NE 3.5 mph - N/A   Clear
11:53 PM 37.0 °F 34.5 °F 32.0 °F 82% 29.92 in 9.0 mi NNE 3.5 mph - N/A   Clear